SCP
0 0 0 0 0 0 0 0 0 0 0 0 0 0 0 0 0 0 0 0 0 -0 -0 -0 -0 -0 -0 0 0 0 0 0 -0 -0 -0 -0 0 -0 0 0 0 0 -0
0 0 0 0 0 0 0 0 0 0 0 0 0 0 0 0 0 0 0 0 0 0 0 -0 -0 -0 -0 -0 -0 0 -0 0 0 -0 -0 -0 -0 0 0 -0 -0 0 0
0 0 0 0 0 0 0 0 0 0 0 0 0 0 0 0 0 0 0 0 0 0 0 0 -0 -0 -0 -0 0 -0 0 0 0 0 0 -0 -0 -0 0 0 -0 -0 -0
0 0 0 0 0 0 0 0 0 0 0 0 0 0 0 0 0 0 0 0 0 0 0 0 0 0 0 -0 -0 0 0 0 0 0 0 0 -0 -0 -0 -0 0 -0 -0
0 0 0 0 0 0 0 0 0 0 0 0 0 0 0 0 0 0 0 0 0 0 0 0 0 0 0 0 -0 0 0 0 0 0 0 0 0 -0 -0 -0 0 -0 -0
0 0 0 0 0 0 0 0 0 0 0 0 0 0 0 0 0 0 0 0 0 0 0 0 0 0 0 0 0 0 0 0 0 0 0 0 0 0 0 -0 0 -0 0
0 0 0 0 0 0 0 0 0 0 0 0 0 0 0 0 0 0 0 0 0 0 0 0 0 0 0 0 0 0 0 0 0 0 0 0 0 0 0 0 -0 -0 -0
0 0 0 0 0 0 0 0 0 0 0 0 0 0 0 0 0 0 0 0 0 0 0 0 0 0 0 0 0 0 0 0 0 0 0 0 0 0 0 -0 0 -0 -0
0 0 0 0 0 0 0 0 0 0 0 0 0 0 0 0 0 0 0 0 0 0 0 0 0 0 0 0 0 0 0 0 0 0 0 0 0 0 0 0 0 0 0
0 0 0 0 0 0 0 0 0 0 0 0 0 0 0 0 0 0 0 0 0 0 0 0 0 0 0 0 0 0 0 0 0 0 0 0 0 0 0 0 0 0 0
0 0 0 0 0 0 0 0 0 0 0 0 0 0 0 0 0 0 0 0 0 0 0 0 0 0 0 0 0 0 0 0 0 0 0 0 0 0 0 0 0 0 0
0 0 0 0 0 0 0 0 0 0 0 0 0 0 0 0 0 0 0 0 0 0 0 0 0 0 0 0 0 0 0 0 0 0 0 0 0 0 0 0 0 0 0
0 0 0 0 0 0 0 0 0 0 0 0 0 0 0 0 0 0 0 0 0 0 0 0 0 0 0 0 0 0 0 0 0 0 0 0 0 0 0 0 0 0 0
0 0 0 0 0 0 0 0 0 0 0 0 0 0 0 0 0 0 0 0 0 0 0 0 0 0 0 0 0 0 0 0 0 0 0 0 0 0 0 0 0 0 0
0 0 0 0 0 0 0 0 0 0 0 0 0 0 0 0 0 0 0 0 0 0 0 0 0 0 0 0 0 0 0 0 0 0 0 0 0 0 0 0 0 0 0
0 0 0 0 0 0 0 0 0 0 0 0 0 0 0 0 0 0 0 0 0 0 0 0 0 0 0 0 0 0 0 0 0 0 0 0 0 0 0 0 0 0 0
0 0 0 0 0 0 0 0 0 0 0 0 0 0 0 0 0 0 0 0 0 0 0 0 0 0 0 0 0 0 0 0 0 0 0 0 0 0 0 0 0 0 0
0 0 0 0 0 0 0 0 0 0 0 0 0 0 0 0 0 0 0 0 0 0 0 0 0 0 0 0 0 0 0 0 0 0 0 0 0 0 0 0 0 0 0
0 0 0 0 0 0 0 0 0 0 0 0 0 0 0 0 0 0 0 0 0 0 0 0 0 0 0 0 0 0 0 0 0 0 0 0 0 0 0 0 0 0 0
0 0 0 0 0 0 0 0 0 0 0 0 0 0 0 0 0 0 0 0 0 0 0 0 0 0 0 0 0 0 0 0 0 0 0 0 0 0 0 0 0 0 0
0 0 0 0 0 0 0 0 0 0 0 0 0 0 0 0 0 0 0 0 0 0 0 0 0 0 0 0 0 0 0 0 0 0 0 0 0 0 0 0 0 0 0
0 0 0 0 0 0 0 0 0 0 0 0 0 0 0 0 0 0 0 0 0 0 0 0 0 0 0 0 0 0 0 0 -0 -0 -0 -0 -0 0 0 0 0 0 0
0 0 0 0 0 0 0 0 0 0 0 0 0 0 0 0 0 0 0 0 0 0 0 0 0 0 0 0 0 0 0 0 0 0 0 0 0 0 -0 -0 0 0 0
0 0 0 0 0 0 0 0 0 0 0 0 0 0 0 0 0 0 0 0 0 0 0 0 0 0 0 0 0 0 0 0 0 0 0 0 0 0 -0 -0 0 -0 0
0 0 0 0 0 0 0 0 0 0 0 0 0 0 0 0 0 0 0 0 0 0 0 0 0 0 0 0 0 0 0 0 0 0 0 0 0 0 -0 -0 -0 0 0
0 0 0 0 0 0 0 0 0 0 0 0 0 0 0 0 0 0 0 0 0 0 0 0 0 0 0 0 0 0 0 0 0 0 0 0 0 0 -0 -0 -0 0 0
Wind_Speed_500mb
38 37 35 36 38 40 40 39 36 36 37 37 36 36 35 32 27 24 23 17 13 8 3 4 4 4 2 5 8 12 15 18 21 15 9 7 6 5 5 7 4 7 9
35 34 34 34 35 37 40 41 43 40 39 37 39 39 39 38 36 33 31 25 22 18 13 8 6 8 9 8 6 7 10 14 21 22 15 9 5 2 2 3 3 1 5
34 34 35 36 36 35 35 36 39 40 44 46 44 42 41 41 38 39 37 34 31 26 23 17 11 9 9 12 14 10 8 11 16 17 20 11 8 3 4 5 4 2 3
32 32 33 34 36 37 37 38 37 38 42 43 45 47 47 44 43 43 42 41 38 35 30 27 21 16 12 12 17 19 14 13 14 15 16 18 11 10 7 6 8 7 4
28 29 31 32 33 34 36 38 39 42 43 46 46 48 49 49 47 46 47 44 44 40 38 35 30 26 22 17 13 20 23 17 19 19 13 16 18 13 13 10 11 11 11
26 26 27 28 29 30 32 33 34 37 40 44 47 50 50 51 51 51 52 47 44 43 40 40 37 35 33 28 22 19 22 26 23 22 14 12 12 21 20 18 16 16 16
24 25 26 25 26 26 28 28 30 32 35 37 37 41 44 46 51 53 52 55 55 50 47 47 44 41 39 36 31 30 27 27 25 22 20 18 13 14 20 25 23 22 21
21 23 23 24 24 24 25 26 26 27 28 27 24 24 15 20 31 45 47 52 55 57 53 55 51 48 46 42 40 36 35 30 29 29 24 23 24 24 18 19 27 27 29
19 20 21 21 22 23 23 23 23 24 23 24 21 18 6 6 11 18 27 31 49 54 57 59 54 50 49 50 48 47 43 40 36 35 34 32 26 30 32 25 21 30 33
18 19 20 20 21 22 22 23 23 23 22 22 21 21 25 24 10 7 15 23 32 46 59 60 62 66 64 57 57 55 52 50 45 43 41 39 39 34 35 37 32 27 36
16 16 17 18 20 21 22 22 21 22 21 21 21 21 22 22 23 20 18 22 26 33 36 52 63 65 65 59 57 63 61 54 50 52 52 47 45 43 43 43 41 36 29
16 17 18 19 20 21 22 23 23 24 23 23 23 23 22 19 18 17 19 26 34 39 46 45 45 49 51 55 62 67 62 56 54 54 60 59 56 54 50 49 47 46 40
15 18 18 19 21 22 23 24 24 25 26 27 26 27 28 28 29 30 30 30 32 39 37 38 45 52 52 54 52 65 64 59 58 61 63 69 69 66 61 57 54 55 52
15 17 18 20 21 22 23 24 24 26 27 29 29 30 31 32 34 34 32 29 32 27 31 34 31 31 39 53 62 69 68 70 66 64 67 70 68 72 74 68 63 60 59
14 15 17 19 21 23 24 24 25 27 28 29 31 33 33 35 35 37 37 35 29 20 28 25 19 24 31 33 43 54 64 72 69 67 74 75 73 74 76 75 73 69 66
16 16 17 18 21 23 24 23 25 28 29 31 33 35 36 37 38 38 39 39 38 38 36 28 30 36 49 53 54 58 62 65 68 79 80 82 81 81 77 78 80 78 75
18 18 18 20 22 24 25 25 27 30 31 33 35 38 38 40 40 40 40 41 43 44 53 60 59 59 60 63 60 57 59 58 65 72 76 86 93 92 84 81 86 86 90
20 19 19 21 22 24 26 28 30 33 34 35 37 40 40 41 43 44 44 47 48 48 52 64 60 64 68 68 72 74 70 69 71 69 62 73 84 95 102 95 86 89 92
21 21 21 22 24 25 27 30 32 34 37 38 39 41 42 44 46 46 47 49 50 51 52 60 66 60 67 71 76 76 75 75 75 73 73 69 71 83 94 105 98 93 96
22 22 23 24 25 26 28 30 32 33 36 39 41 43 43 42 42 42 44 45 47 51 54 63 71 66 62 62 66 71 79 72 74 71 74 75 77 70 87 99 112 109 102
25 24 24 25 26 27 26 27 30 32 34 35 36 39 41 43 46 46 47 48 49 56 62 68 78 72 63 53 54 57 72 78 90 81 89 90 80 83 88 87 107 120 119
27 27 26 26 26 26 27 27 28 29 31 34 37 37 39 43 46 48 51 54 58 66 74 76 85 82 74 70 65 66 72 74 87 60 54 77 72 90 96 91 90 109 123
30 29 27 27 26 27 28 29 29 28 30 32 34 36 37 38 43 46 50 53 58 62 69 77 93 95 95 76 70 74 77 83 94 85 75 103 79 104 84 87 102 96 108
32 30 28 28 29 29 30 31 31 29 28 30 32 35 38 41 43 44 49 57 62 66 70 75 85 92 98 90 84 86 91 99 109 100 83 113 90 108 85 92 81 84 94
34 31 29 28 30 29 31 30 30 26 26 31 33 36 37 41 42 42 48 56 63 69 68 72 80 86 90 91 88 93 106 95 118 101 78 92 98 94 85 99 95 88 75
36 34 31 30 30 32 32 31 27 23 31 34 34 32 34 37 38 40 45 52 62 70 71 80 87 89 89 91 81 83 95 106 110 114 94 91 88 81 88 94 93 102 83
Wind_Direction_500mb
221 220 222 223 225 229 223 220 223 226 229 232 234 240 247 245 247 246 242 242 230 226 256 262 246 261 308 342 336 336 340 348 349 335 318 338 4 34 85 93 98 102 83
227 224 222 225 227 230 233 234 233 234 237 239 239 240 244 248 245 246 245 242 245 232 233 256 302 289 292 280 288 348 9 347 333 337 326 311 313 346 137 144 140 9 97
228 230 230 229 229 230 232 236 239 242 246 246 247 248 245 248 249 247 246 243 245 246 243 243 255 271 293 280 283 292 313 352 354 323 333 304 300 269 217 194 226 234 324
228 230 234 235 237 239 240 239 241 244 250 252 252 252 250 250 251 249 248 249 244 245 250 250 249 258 269 277 274 275 288 309 339 335 313 316 283 282 252 221 225 230 252
230 234 235 237 239 240 243 245 246 248 250 252 256 257 258 256 252 251 250 249 250 248 249 252 254 255 259 265 271 270 273 288 310 329 302 327 276 266 276 247 231 236 238
233 235 236 239 242 242 244 247 249 250 252 254 255 258 259 259 257 251 250 250 245 248 251 255 255 255 260 262 268 271 261 275 291 306 300 294 300 274 267 270 246 235 238
239 241 241 240 243 246 249 250 255 256 255 259 262 263 264 262 260 256 250 247 246 246 250 255 258 256 256 257 261 266 270 269 280 284 299 272 276 297 291 270 262 245 238
241 244 245 246 245 248 251 251 253 258 260 261 262 272 278 270 257 251 248 244 244 244 244 250 254 253 252 252 254 255 262 268 274 280 282 283 269 269 280 292 272 264 245
244 247 248 249 251 250 251 255 254 256 258 258 259 244 256 237 283 263 247 239 237 238 237 237 240 245 246 250 251 251 248 255 262 270 276 277 281 269 266 271 280 273 261
243 244 247 249 249 251 251 252 254 254 252 255 253 247 241 248 257 285 257 249 247 244 240 242 245 251 251 250 250 249 252 250 253 261 266 270 275 277 265 266 269 281 260
266 263 259 256 256 257 255 253 253 253 255 254 252 250 248 253 253 251 270 261 247 246 244 243 247 251 255 254 260 259 253 249 253 257 258 261 264 271 268 266 268 267 270
270 270 266 263 260 259 259 259 258 260 260 260 261 261 256 247 251 253 268 277 268 255 250 248 247 247 249 251 253 254 255 248 249 253 255 259 261 261 263 264 269 268 265
275 272 271 267 263 260 259 257 257 258 259 260 260 264 266 264 264 265 271 279 284 285 272 259 255 251 251 250 252 255 253 252 246 246 249 252 257 258 259 260 261 262 265
274 274 272 271 269 266 263 260 258 257 257 260 262 261 262 265 266 266 267 274 290 278 284 283 267 258 253 252 253 255 258 257 250 249 252 250 248 250 254 255 257 260 262
278 275 273 272 271 269 267 267 264 262 261 262 263 263 263 263 264 266 267 267 266 285 286 272 278 273 265 256 253 255 253 253 253 249 254 255 252 252 250 250 250 254 258
295 291 286 280 276 274 272 271 270 268 264 262 262 264 264 264 264 264 265 265 263 261 266 274 274 272 279 277 271 266 263 260 257 252 252 254 256 253 254 252 250 248 251
298 297 293 289 285 283 281 277 272 269 266 264 264 263 262 262 263 264 266 266 267 265 267 276 280 284 287 289 287 282 279 273 266 258 255 253 253 255 254 251 250 250 248
297 298 298 295 292 288 283 278 274 272 271 269 267 266 264 265 264 264 265 266 267 267 270 277 280 283 284 287 290 291 288 285 284 280 268 260 256 255 256 257 253 247 247
293 298 299 297 296 294 291 286 281 277 275 272 269 269 267 267 267 267 266 267 269 270 271 274 280 281 284 287 289 288 289 289 287 287 286 279 263 257 253 252 253 250 246
285 291 294 297 297 296 294 291 288 283 279 275 271 269 267 265 267 269 270 270 271 271 273 275 279 282 283 285 285 287 289 289 288 286 283 282 282 273 256 250 248 249 245
279 286 292 296 297 297 298 295 290 286 282 278 274 272 270 269 268 267 268 272 275 277 278 281 281 281 279 279 278 284 282 288 288 287 289 289 286 282 276 259 251 247 247
271 280 288 293 297 300 297 292 288 286 282 279 277 274 273 273 275 272 269 267 267 270 273 274 276 275 276 277 277 276 281 282 285 286 289 287 283 280 277 274 259 251 249
265 275 283 289 295 298 297 294 288 285 280 277 277 278 278 275 275 275 276 275 272 269 266 269 271 273 276 276 278 279 275 274 272 272 276 276 273 269 268 278 270 262 251
260 269 277 286 292 297 299 299 299 294 283 282 282 282 280 280 278 279 281 281 279 279 277 275 274 278 279 280 276 274 274 274 274 272 266 268 270 269 270 276 262 273 261
257 264 272 280 289 297 302 307 306 297 289 284 284 283 283 283 283 284 285 285 284 284 284 280 279 279 277 276 273 273 269 271 272 270 265 264 268 269 269 271 266 263 251
254 260 269 278 290 301 308 308 305 303 294 293 293 289 284 285 289 291 292 292 290 290 291 290 288 289 290 290 281 268 266 259 261 271 265 256 262 261 267 265 262 260 249
Wind_Speed_850mb
38 37 35 36 38 40 40 39 36 36 37 37 36 36 35 32 27 24 23 17 13 8 3 4 4 4 2 5 8 12 15 18 21 15 9 7 6 5 5 7 4 7 9
35 34 34 34 35 37 40 41 43 40 39 37 39 39 39 38 36 33 31 25 22 18 13 8 6 8 9 8 6 7 10 14 21 22 15 9 5 2 2 3 3 1 5
34 34 35 36 36 35 35 36 39 40 44 46 44 42 41 41 38 39 37 34 31 26 23 17 11 9 9 12 14 10 8 11 16 17 20 11 8 3 4 5 4 2 3
32 32 33 34 36 37 37 38 37 38 42 43 45 47 47 44 43 43 42 41 38 35 30 27 21 16 12 12 17 19 14 13 14 15 16 18 11 10 7 6 8 7 4
28 29 31 32 33 34 36 38 39 42 43 46 46 48 49 49 47 46 47 44 44 40 38 35 30 26 22 17 13 20 23 17 19 19 13 16 18 13 13 10 11 11 11
26 26 27 28 29 30 32 33 34 37 40 44 47 50 50 51 51 51 52 47 44 43 40 40 37 35 33 28 22 19 22 26 23 22 14 12 12 21 20 18 16 16 16
24 25 26 25 26 26 28 28 30 32 35 37 37 41 44 46 51 53 52 55 55 50 47 47 44 41 39 36 31 30 27 27 25 22 20 18 13 14 20 25 23 22 21
21 23 23 24 24 24 25 26 26 27 28 27 24 24 15 20 31 45 47 52 55 57 53 55 51 48 46 42 40 36 35 30 29 29 24 23 24 24 18 19 27 27 29
19 20 21 21 22 23 23 23 23 24 23 24 21 18 6 6 11 18 27 31 49 54 57 59 54 50 49 50 48 47 43 40 36 35 34 32 26 30 32 25 21 30 33
18 19 20 20 21 22 22 23 23 23 22 22 21 21 25 24 10 7 15 23 32 46 59 60 62 66 64 57 57 55 52 50 45 43 41 39 39 34 35 37 32 27 36
16 16 17 18 20 21 22 22 21 22 21 21 21 21 22 22 23 20 18 22 26 33 36 52 63 65 65 59 57 63 61 54 50 52 52 47 45 43 43 43 41 36 29
16 17 18 19 20 21 22 23 23 24 23 23 23 23 22 19 18 17 19 26 34 39 46 45 45 49 51 55 62 67 62 56 54 54 60 59 56 54 50 49 47 46 40
15 18 18 19 21 22 23 24 24 25 26 27 26 27 28 28 29 30 30 30 32 39 37 38 45 52 52 54 52 65 64 59 58 61 63 69 69 66 61 57 54 55 52
15 17 18 20 21 22 23 24 24 26 27 29 29 30 31 32 34 34 32 29 32 27 31 34 31 31 39 53 62 69 68 70 66 64 67 70 68 72 74 68 63 60 59
14 15 17 19 21 23 24 24 25 27 28 29 31 33 33 35 35 37 37 35 29 20 28 25 19 24 31 33 43 54 64 72 69 67 74 75 73 74 76 75 73 69 66
16 16 17 18 21 23 24 23 25 28 29 31 33 35 36 37 38 38 39 39 38 38 36 28 30 36 49 53 54 58 62 65 68 79 80 82 81 81 77 78 80 78 75
18 18 18 20 22 24 25 25 27 30 31 33 35 38 38 40 40 40 40 41 43 44 53 60 59 59 60 63 60 57 59 58 65 72 76 86 93 92 84 81 86 86 90
20 19 19 21 22 24 26 28 30 33 34 35 37 40 40 41 43 44 44 47 48 48 52 64 60 64 68 68 72 74 70 69 71 69 62 73 84 95 102 95 86 89 92
21 21 21 22 24 25 27 30 32 34 37 38 39 41 42 44 46 46 47 49 50 51 52 60 66 60 67 71 76 76 75 75 75 73 73 69 71 83 94 105 98 93 96
22 22 23 24 25 26 28 30 32 33 36 39 41 43 43 42 42 42 44 45 47 51 54 63 71 66 62 62 66 71 79 72 74 71 74 75 77 70 87 99 112 109 102
25 24 24 25 26 27 26 27 30 32 34 35 36 39 41 43 46 46 47 48 49 56 62 68 78 72 63 53 54 57 72 78 90 81 89 90 80 83 88 87 107 120 119
27 27 26 26 26 26 27 27 28 29 31 34 37 37 39 43 46 48 51 54 58 66 74 76 85 82 74 70 65 66 72 74 87 60 54 77 72 90 96 91 90 109 123
30 29 27 27 26 27 28 29 29 28 30 32 34 36 37 38 43 46 50 53 58 62 69 77 93 95 95 76 70 74 77 83 94 85 75 103 79 104 84 87 102 96 108
32 30 28 28 29 29 30 31 31 29 28 30 32 35 38 41 43 44 49 57 62 66 70 75 85 92 98 90 84 86 91 99 109 100 83 113 90 108 85 92 81 84 94
34 31 29 28 30 29 31 30 30 26 26 31 33 36 37 41 42 42 48 56 63 69 68 72 80 86 90 91 88 93 106 95 118 101 78 92 98 94 85 99 95 88 75
36 34 31 30 30 32 32 31 27 23 31 34 34 32 34 37 38 40 45 52 62 70 71 80 87 89 89 91 81 83 95 106 110 114 94 91 88 81 88 94 93 102 83
Wind_Direction_850mb
221 220 222 223 225 229 223 220 223 226 229 232 234 240 247 245 247 246 242 242 230 226 256 262 246 261 308 342 336 336 340 348 349 335 318 338 4 34 85 93 98 102 83
227 224 222 225 227 230 233 234 233 234 237 239 239 240 244 248 245 246 245 242 245 232 233 256 302 289 292 280 288 348 9 347 333 337 326 311 313 346 137 144 140 9 97
228 230 230 229 229 230 232 236 239 242 246 246 247 248 245 248 249 247 246 243 245 246 243 243 255 271 293 280 283 292 313 352 354 323 333 304 300 269 217 194 226 234 324
228 230 234 235 237 239 240 239 241 244 250 252 252 252 250 250 251 249 248 249 244 245 250 250 249 258 269 277 274 275 288 309 339 335 313 316 283 282 252 221 225 230 252
230 234 235 237 239 240 243 245 246 248 250 252 256 257 258 256 252 251 250 249 250 248 249 252 254 255 259 265 271 270 273 288 310 329 302 327 276 266 276 247 231 236 238
233 235 236 239 242 242 244 247 249 250 252 254 255 258 259 259 257 251 250 250 245 248 251 255 255 255 260 262 268 271 261 275 291 306 300 294 300 274 267 270 246 235 238
239 241 241 240 243 246 249 250 255 256 255 259 262 263 264 262 260 256 250 247 246 246 250 255 258 256 256 257 261 266 270 269 280 284 299 272 276 297 291 270 262 245 238
241 244 245 246 245 248 251 251 253 258 260 261 262 272 278 270 257 251 248 244 244 244 244 250 254 253 252 252 254 255 262 268 274 280 282 283 269 269 280 292 272 264 245
244 247 248 249 251 250 251 255 254 256 258 258 259 244 256 237 283 263 247 239 237 238 237 237 240 245 246 250 251 251 248 255 262 270 276 277 281 269 266 271 280 273 261
243 244 247 249 249 251 251 252 254 254 252 255 253 247 241 248 257 285 257 249 247 244 240 242 245 251 251 250 250 249 252 250 253 261 266 270 275 277 265 266 269 281 260
266 263 259 256 256 257 255 253 253 253 255 254 252 250 248 253 253 251 270 261 247 246 244 243 247 251 255 254 260 259 253 249 253 257 258 261 264 271 268 266 268 267 270
270 270 266 263 260 259 259 259 258 260 260 260 261 261 256 247 251 253 268 277 268 255 250 248 247 247 249 251 253 254 255 248 249 253 255 259 261 261 263 264 269 268 265
275 272 271 267 263 260 259 257 257 258 259 260 260 264 266 264 264 265 271 279 284 285 272 259 255 251 251 250 252 255 253 252 246 246 249 252 257 258 259 260 261 262 265
274 274 272 271 269 266 263 260 258 257 257 260 262 261 262 265 266 266 267 274 290 278 284 283 267 258 253 252 253 255 258 257 250 249 252 250 248 250 254 255 257 260 262
278 275 273 272 271 269 267 267 264 262 261 262 263 263 263 263 264 266 267 267 266 285 286 272 278 273 265 256 253 255 253 253 253 249 254 255 252 252 250 250 250 254 258
295 291 286 280 276 274 272 271 270 268 264 262 262 264 264 264 264 264 265 265 263 261 266 274 274 272 279 277 271 266 263 260 257 252 252 254 256 253 254 252 250 248 251
298 297 293 289 285 283 281 277 272 269 266 264 264 263 262 262 263 264 266 266 267 265 267 276 280 284 287 289 287 282 279 273 266 258 255 253 253 255 254 251 250 250 248
297 298 298 295 292 288 283 278 274 272 271 269 267 266 264 265 264 264 265 266 267 267 270 277 280 283 284 287 290 291 288 285 284 280 268 260 256 255 256 257 253 247 247
293 298 299 297 296 294 291 286 281 277 275 272 269 269 267 267 267 267 266 267 269 270 271 274 280 281 284 287 289 288 289 289 287 287 286 279 263 257 253 252 253 250 246
285 291 294 297 297 296 294 291 288 283 279 275 271 269 267 265 267 269 270 270 271 271 273 275 279 282 283 285 285 287 289 289 288 286 283 282 282 273 256 250 248 249 245
279 286 292 296 297 297 298 295 290 286 282 278 274 272 270 269 268 267 268 272 275 277 278 281 281 281 279 279 278 284 282 288 288 287 289 289 286 282 276 259 251 247 247
271 280 288 293 297 300 297 292 288 286 282 279 277 274 273 273 275 272 269 267 267 270 273 274 276 275 276 277 277 276 281 282 285 286 289 287 283 280 277 274 259 251 249
265 275 283 289 295 298 297 294 288 285 280 277 277 278 278 275 275 275 276 275 272 269 266 269 271 273 276 276 278 279 275 274 272 272 276 276 273 269 268 278 270 262 251
260 269 277 286 292 297 299 299 299 294 283 282 282 282 280 280 278 279 281 281 279 279 277 275 274 278 279 280 276 274 274 274 274 272 266 268 270 269 270 276 262 273 261
257 264 272 280 289 297 302 307 306 297 289 284 284 283 283 283 283 284 285 285 284 284 284 280 279 279 277 276 273 273 269 271 272 270 265 264 268 269 269 271 266 263 251
254 260 269 278 290 301 308 308 305 303 294 293 293 289 284 285 289 291 292 292 290 290 291 290 288 289 290 290 281 268 266 259 261 271 265 256 262 261 267 265 262 260 249